Location: Casco Millpond
(44.5581°N, 87.6111°W)
Time: 22:41:15
(UTC+00:00)

Cosmos 1470 Rocket - Pass Details

Date: 16 January 2026
Orbit: 597 x 626 km, 82.5° (Epoch: 10 February)

Event Time Altitude Azimuth Distance (km) Brightness Sun altitude
Rises 23:30:20 0° 351° (N) 2,860 6.9 -9.3°
Reaches altitude 10° 23:32:32 10° 351° (N) 1,956 6.0 -9.7°
Maximum altitude 23:36:52 86° 263° (W) 613 3.6 -10.4°
Drops below altitude 10° 23:41:12 10° 174° (S) 1,956 6.3 -11.1°
Sets 23:43:25 0° 174° (S) 2,860 7.1 -11.5°
